Total_Precipitation_Accumulation
0.18 0.19 0.22 0.30 0.40 0.61 0.80 0.71 0.49 0.40 0.38 0.38 0.35 0.37 0.44 0.49 0.57 0.64 0.66 0.67 0.67 0.68 0.59 0.54 0.59 0.57 0.64 0.55 0.47 0.37 0.25 0.22 0.33 0.27 0.12 0.03 0.01 0.00 0.00 0.00 0.00 0.00 0.00
0.12 0.09 0.11 0.20 0.32 0.37 0.41 0.46 0.37 0.24 0.18 0.22 0.23 0.23 0.30 0.38 0.42 0.45 0.50 0.56 0.55 0.57 0.52 0.45 0.49 0.52 0.52 0.52 0.50 0.44 0.34 0.24 0.29 0.30 0.14 0.04 0.01 0.00 0.00 0.00 0.00 0.00 0.00
0.05 0.07 0.08 0.08 0.12 0.13 0.10 0.09 0.12 0.12 0.10 0.12 0.16 0.22 0.28 0.34 0.42 0.42 0.44 0.47 0.47 0.45 0.44 0.41 0.41 0.44 0.52 0.53 0.44 0.43 0.39 0.33 0.30 0.33 0.20 0.06 0.02 0.01 0.00 0.00 0.00 0.00 0.00
0.05 0.05 0.05 0.05 0.05 0.05 0.04 0.03 0.04 0.05 0.06 0.10 0.14 0.22 0.25 0.27 0.34 0.36 0.39 0.43 0.40 0.37 0.38 0.36 0.34 0.33 0.36 0.49 0.46 0.40 0.41 0.38 0.40 0.39 0.27 0.09 0.04 0.02 0.00 0.00 0.00 0.00 0.00
0.06 0.08 0.06 0.05 0.05 0.05 0.05 0.03 0.04 0.05 0.05 0.09 0.13 0.23 0.27 0.29 0.26 0.32 0.35 0.42 0.40 0.35 0.34 0.35 0.33 0.36 0.50 0.52 0.45 0.43 0.44 0.39 0.41 0.39 0.32 0.16 0.05 0.02 0.01 0.00 0.00 0.00 0.00
0.06 0.07 0.11 0.11 0.10 0.07 0.06 0.05 0.05 0.06 0.07 0.08 0.11 0.20 0.27 0.24 0.49 0.53 0.40 0.38 0.37 0.30 0.28 0.27 0.26 0.28 0.43 0.60 0.61 0.55 0.53 0.54 0.48 0.40 0.32 0.22 0.13 0.06 0.03 0.02 0.01 0.00 0.00
0.11 0.11 0.15 0.14 0.14 0.13 0.14 0.12 0.12 0.14 0.14 0.11 0.10 0.11 0.16 0.28 0.30 0.25 0.21 0.21 0.30 0.27 0.22 0.20 0.17 0.16 0.22 0.30 0.37 0.36 0.48 0.66 0.72 0.62 0.41 0.32 0.33 0.23 0.12 0.05 0.02 0.01 0.00
0.16 0.17 0.19 0.18 0.19 0.22 0.19 0.18 0.18 0.18 0.17 0.15 0.16 0.15 0.17 0.20 0.15 0.12 0.13 0.13 0.19 0.20 0.17 0.16 0.16 0.16 0.17 0.24 0.34 0.38 0.40 0.50 0.65 0.61 0.49 0.46 0.45 0.35 0.21 0.13 0.07 0.04 0.03
0.16 0.20 0.24 0.25 0.28 0.28 0.26 0.29 0.28 0.23 0.22 0.19 0.19 0.25 0.27 0.22 0.16 0.08 0.07 0.12 0.15 0.14 0.12 0.12 0.13 0.15 0.22 0.27 0.28 0.32 0.40 0.44 0.60 0.62 0.64 0.60 0.44 0.27 0.19 0.13 0.09 0.05 0.03
0.15 0.20 0.26 0.29 0.32 0.34 0.39 0.40 0.38 0.32 0.27 0.23 0.21 0.20 0.23 0.21 0.21 0.08 0.06 0.11 0.14 0.14 0.14 0.14 0.18 0.20 0.28 0.32 0.30 0.36 0.44 0.40 0.39 0.44 0.42 0.38 0.27 0.15 0.14 0.10 0.08 0.06 0.04
0.09 0.14 0.20 0.27 0.35 0.43 0.47 0.47 0.47 0.42 0.35 0.30 0.32 0.25 0.23 0.26 0.27 0.15 0.08 0.10 0.14 0.16 0.19 0.21 0.20 0.21 0.28 0.37 0.39 0.47 0.62 0.55 0.39 0.38 0.40 0.33 0.20 0.11 0.08 0.08 0.06 0.04 0.05
0.05 0.10 0.16 0.25 0.32 0.40 0.48 0.49 0.49 0.48 0.45 0.41 0.39 0.37 0.36 0.31 0.28 0.25 0.13 0.09 0.11 0.14 0.23 0.25 0.23 0.21 0.20 0.24 0.28 0.38 0.63 0.59 0.39 0.34 0.35 0.33 0.26 0.17 0.13 0.10 0.08 0.06 0.05
0.02 0.05 0.10 0.14 0.19 0.23 0.29 0.37 0.43 0.47 0.45 0.42 0.43 0.48 0.48 0.40 0.34 0.36 0.18 0.09 0.07 0.13 0.18 0.22 0.23 0.21 0.18 0.16 0.20 0.28 0.43 0.56 0.48 0.35 0.29 0.29 0.30 0.28 0.21 0.14 0.10 0.07 0.06
0.01 0.02 0.04 0.05 0.06 0.09 0.17 0.26 0.33 0.39 0.42 0.46 0.49 0.56 0.60 0.51 0.41 0.31 0.21 0.16 0.12 0.11 0.10 0.11 0.12 0.15 0.17 0.17 0.17 0.20 0.32 0.50 0.52 0.43 0.35 0.34 0.36 0.31 0.24 0.18 0.14 0.12 0.09
0.01 0.01 0.02 0.03 0.04 0.07 0.13 0.22 0.26 0.33 0.34 0.36 0.44 0.54 0.54 0.51 0.45 0.44 0.38 0.35 0.31 0.28 0.23 0.16 0.13 0.13 0.15 0.19 0.19 0.19 0.26 0.37 0.40 0.37 0.34 0.30 0.31 0.33 0.29 0.24 0.19 0.16 0.13
0.06 0.03 0.02 0.02 0.04 0.07 0.09 0.11 0.11 0.15 0.15 0.17 0.20 0.24 0.27 0.28 0.26 0.23 0.26 0.29 0.26 0.20 0.23 0.28 0.27 0.25 0.24 0.23 0.20 0.18 0.18 0.24 0.30 0.32 0.32 0.29 0.29 0.32 0.34 0.29 0.24 0.20 0.16
0.14 0.11 0.06 0.04 0.04 0.05 0.05 0.06 0.06 0.05 0.04 0.06 0.07 0.11 0.14 0.14 0.14 0.14 0.16 0.18 0.21 0.19 0.23 0.30 0.27 0.22 0.19 0.17 0.16 0.14 0.15 0.16 0.21 0.25 0.28 0.30 0.30 0.33 0.37 0.38 0.34 0.30 0.27
0.03 0.03 0.04 0.07 0.05 0.03 0.06 0.12 0.15 0.15 0.10 0.05 0.03 0.04 0.06 0.08 0.10 0.11 0.11 0.12 0.12 0.13 0.17 0.23 0.20 0.16 0.11 0.08 0.08 0.08 0.09 0.11 0.15 0.20 0.25 0.28 0.32 0.35 0.38 0.43 0.45 0.43 0.39
0.00 0.02 0.08 0.10 0.05 0.04 0.09 0.16 0.19 0.16 0.13 0.07 0.02 0.01 0.01 0.02 0.04 0.05 0.06 0.08 0.09 0.07 0.09 0.15 0.16 0.14 0.11 0.07 0.05 0.05 0.04 0.05 0.08 0.12 0.18 0.22 0.27 0.33 0.37 0.40 0.42 0.46 0.46
0.02 0.01 0.08 0.14 0.08 0.07 0.10 0.09 0.09 0.10 0.07 0.04 0.02 0.02 0.01 0.01 0.02 0.02 0.02 0.04 0.05 0.05 0.05 0.08 0.10 0.12 0.11 0.09 0.08 0.06 0.05 0.05 0.05 0.06 0.10 0.15 0.19 0.22 0.27 0.33 0.38 0.40 0.39
0.06 0.02 0.02 0.13 0.17 0.13 0.12 0.10 0.10 0.12 0.08 0.04 0.03 0.01 0.01 0.03 0.05 0.04 0.02 0.02 0.03 0.03 0.04 0.05 0.07 0.11 0.10 0.09 0.09 0.08 0.06 0.06 0.06 0.06 0.07 0.08 0.11 0.14 0.17 0.19 0.22 0.27 0.31
0.02 0.03 0.04 0.13 0.18 0.14 0.10 0.11 0.11 0.10 0.07 0.04 0.03 0.01 0.01 0.02 0.04 0.05 0.04 0.04 0.04 0.04 0.04 0.05 0.07 0.10 0.11 0.09 0.08 0.09 0.09 0.07 0.06 0.07 0.08 0.09 0.09 0.08 0.09 0.10 0.11 0.13 0.16
0.01 0.01 0.03 0.07 0.08 0.04 0.04 0.08 0.09 0.08 0.05 0.03 0.02 0.01 0.01 0.02 0.03 0.03 0.04 0.06 0.09 0.09 0.07 0.06 0.08 0.12 0.14 0.14 0.12 0.12 0.12 0.12 0.10 0.08 0.08 0.10 0.11 0.11 0.10 0.09 0.10 0.11 0.12
0.01 0.01 0.02 0.04 0.04 0.05 0.07 0.08 0.07 0.06 0.06 0.03 0.02 0.02 0.03 0.03 0.04 0.03 0.04 0.07 0.10 0.11 0.08 0.07 0.07 0.09 0.12 0.14 0.16 0.16 0.15 0.14 0.11 0.08 0.08 0.08 0.09 0.09 0.10 0.10 0.11 0.12 0.14
0.02 0.01 0.02 0.03 0.04 0.05 0.05 0.06 0.06 0.06 0.06 0.06 0.05 0.03 0.03 0.05 0.05 0.04 0.03 0.04 0.06 0.06 0.05 0.05 0.07 0.11 0.13 0.14 0.16 0.18 0.22 0.22 0.16 0.11 0.09 0.09 0.09 0.10 0.12 0.14 0.16 0.18 0.20
0.02 0.01 0.02 0.04 0.05 0.05 0.06 0.06 0.06 0.06 0.06 0.06 0.06 0.05 0.06 0.05 0.05 0.04 0.03 0.04 0.04 0.04 0.07 0.07 0.08 0.11 0.13 0.14 0.12 0.12 0.14 0.13 0.13 0.13 0.10 0.08 0.09 0.11 0.13 0.16 0.20 0.24 0.28